Location: ?p Thanh B�nh
(16.5833°N, 107.5333°E)
Time: 05:04:16
(UTC+00:00)

GPS 2-18 Rocket1 - Pass Details

Date: 29 October 2020
Orbit: 458 x 514 km, 20.9° (Epoch: 29 November)

Event Time Altitude Azimuth Distance (km) Brightness Sun altitude
Exits shadow 21:05:24 43° 63° (ENE) 665 4.0 -24.7°
Drops below altitude 10° 21:08:00 10° 74° (ENE) 1,606 6.6 -24.1°
Sets 21:10:11 0° 76° (ENE) 2,473 7.8 -23.5°
